Tracking 27086 objects as of 22-Mar-2023
HD Live streaming from Space Station
objects crossing your sky now

STARLINK-5660

Track STARLINK-5660 now!
10-day predictions
STARLINK-5660 is classified as:


NORAD ID: 55335
Int'l Code: 2023-013E
Perigee: 419.9 km
Apogee: 421.8 km
Inclination: 43.0 °
Period: 92.8 minutes
Semi major axis: 6791 km
RCS: Unknown
Launch date: January 26, 2023
Source: United States (US)
Launch site: AIR FORCE EASTERN TEST RANGE (AFETR)
Your satellite tracking list
Your tracking list is empty




NASA's NSSDC Master Catalog

Two Line Element Set (TLE):
1 55335U 23013E   23081.25001157 -.00896087  00000-0 -16540-1 0  9992
2 55335  42.9991  73.2047 0001408 272.1669 119.6035 15.51041770  9090
Source of the keplerian elements: AFSPC